EW2972 Weather Reports


Display with metric or nautical units.
time (UTC)temp
F
wind
direction
speed
MPH
gust
MPH
rain 1hr
in
rain 24hr
in
rain mn
in
humidity
%
barometer
mb
20260506050732 58 309 6.0 12.0 0.00 0.00 0.00 77 987.4
20260506045124 58 315 5.0 11.0 0.00 0.00 0.00 78 987.2
20260506044849 58 327 5.0 11.0 0.00 0.00 0.00 78 987.4
20260506044612 58 0 5.0 12.0 0.00 0.00 0.00 78 987.3
20260506044154 58 0 5.0 12.0 0.00 0.00 0.00 78 987.4
20260506043057 58 328 6.0 14.0 0.00 0.00 0.00 79 987.5
20260506042548 58 319 6.0 14.0 0.00 0.00 0.00 79 987.3
20260506042045 58 5 6.0 12.0 0.00 0.00 0.00 79 987.2
20260506041544 58 320 5.0 11.0 0.00 0.00 0.00 79 987.3
20260506041045 58 330 4.0 9.0 0.00 0.00 0.00 79 987.4
20260506040544 59 0 6.0 15.0 0.00 0.00 0.00 79 987.3
20260506040055 59 55 7.0 15.0 0.00 0.00 0.00 79 987.2
20260506035540 59 17 7.0 13.0 0.00 0.00 0.00 79 987.0
20260506035041 59 355 7.0 13.0 0.00 0.00 0.00 79 986.7
20260506034543 59 17 6.0 14.0 0.00 0.00 0.00 79 986.9
20260506034042 59 17 7.0 14.0 0.00 0.00 0.00 79 986.8
20260506033541 59 318 6.0 12.0 0.00 0.00 0.00 79 986.8
20260506033038 59 348 5.0 12.0 0.00 0.00 0.00 79 986.8
20260506032537 59 0 5.0 11.0 0.00 0.00 0.00 79 986.5
20260506032130 60 327 7.0 13.0 0.00 0.00 0.00 79 986.3
20260506032054 60 9 6.0 11.0 0.00 0.00 0.00 79 986.3
20260506031033 60 324 8.0 13.0 0.00 0.00 0.00 78 986.4
20260506030624 60 355 6.0 12.0 0.00 0.00 0.00 78 986.4
20260506030544 60 346 7.0 13.0 0.00 0.00 0.00 78 986.2
20260506025535 60 324 7.0 13.0 0.00 0.00 0.00 78 986.4
20260506025041 61 0 8.0 16.0 0.00 0.00 0.00 78 986.4
20260506024535 61 304 7.0 16.0 0.00 0.00 0.00 77 986.3
20260506024033 61 312 6.0 12.0 0.00 0.00 0.00 79 986.0
20260506023536 61 336 6.0 12.0 0.00 0.00 0.00 78 986.0
20260506023024 61 15 6.0 12.0 0.00 0.00 0.00 78 985.9
20260506022524 61 335 7.0 13.0 0.00 0.00 0.00 78 985.6
20260506022022 61 338 7.0 13.0 0.00 0.00 0.00 78 985.6
20260506021520 62 0 5.0 12.0 0.00 0.00 0.00 78 985.5
20260506021021 62 355 5.0 13.0 0.00 0.00 0.00 78 985.4
20260506020517 62 333 7.0 14.0 0.00 0.00 0.00 77 985.1
20260506020018 62 32 7.0 14.0 0.00 0.00 0.00 77 985.0
20260506015537 63 332 6.0 11.0 0.00 0.00 0.00 76 984.8
20260506015514 63 23 6.0 11.0 0.00 0.00 0.00 77 984.9
20260506014513 63 5 8.0 16.0 0.00 0.00 0.00 75 984.6
20260506014013 64 26 11.0 17.0 0.00 0.00 0.00 74 984.4
20260506013518 65 0 8.0 17.0 0.00 0.00 0.00 74 984.2
20260506013011 65 40 5.0 16.0 0.00 0.00 0.00 75 984.2
20260506012511 65 355 5.0 11.0 0.00 0.00 0.00 75 983.8
20260506012120 66 333 8.0 14.0 0.00 0.00 0.00 72 983.4
20260506012012 65 319 5.0 11.0 0.00 0.00 0.00 75 983.7
20260506011631 65 320 5.0 11.0 0.00 0.00 0.00 74 983.5
20260506011057 66 348 5.0 10.0 0.00 0.00 0.00 73 983.3
20260506011009 65 313 7.0 15.0 0.00 0.00 0.00 74 983.5
20260506010633 66 320 8.0 15.0 0.00 0.00 0.00 74 983.5
20260506010104 66 303 6.0 14.0 0.00 0.00 0.00 73 983.3
20260506004501 66 321 9.0 14.0 0.00 0.00 0.00 72 983.3
20260506004227 66 323 8.0 12.0 0.00 0.00 0.00 72 983.4
20260506004016 66 327 8.0 13.0 0.00 0.00 0.00 72 983.3
20260506003341 68 311 11.0 18.0 0.00 0.00 0.00 70 983.0
20260506002949 67 308 7.0 12.0 0.00 0.00 0.00 72 983.5
20260506002632 69 292 10.0 17.0 0.00 0.00 0.00 69 982.9
20260506002501 67 325 7.0 14.0 0.00 0.00 0.00 72 983.2
20260506002043 67 5 9.0 18.0 0.00 0.00 0.00 71 982.9
20260506000446 69 321 10.0 16.0 0.00 0.00 0.00 70 982.8
20260506000037 69 328 11.0 17.0 0.00 0.00 0.00 69 983.1
20260505235456 69 324 9.0 17.0 0.00 0.00 0.00 69 983.1
20260505235013 70 288 9.0 16.0 0.00 0.00 0.00 69 983.0
20260505234510 70 343 9.0 16.0 0.00 0.00 0.00 69 983.0
20260505234007 71 326 9.0 17.0 0.00 0.00 0.00 69 983.1
20260505233603 72 321 10.0 16.0 0.00 0.00 0.00 67 982.7
20260505233455 71 308 9.0 17.0 0.00 0.00 0.00 68 983.2
20260505233013 71 309 9.0 14.0 0.00 0.00 0.00 69 983.0
20260505232521 71 300 9.0 16.0 0.00 0.00 0.00 68 982.7
20260505231437 72 319 9.0 15.0 0.00 0.00 0.00 68 982.6
20260505231102 72 308 11.0 20.0 0.00 0.00 0.00 68 982.8
20260505230955 72 326 9.0 15.0 0.00 0.00 0.00 68 982.2
20260505225937 73 306 11.0 20.0 0.00 0.00 0.00 67 982.7
20260505225443 74 336 11.0 20.0 0.00 0.00 0.00 66 982.7
20260505224933 74 291 11.0 20.0 0.00 0.00 0.00 66 982.7
20260505224436 75 334 11.0 17.0 0.00 0.00 0.00 66 982.5
20260505223936 76 306 10.0 16.0 0.00 0.00 0.00 64 982.5
20260505223435 77 292 10.0 17.0 0.00 0.00 0.00 63 982.4
20260505222934 77 306 9.0 17.0 0.00 0.00 0.00 64 982.2
20260505222437 78 307 8.0 16.0 0.00 0.00 0.00 63 982.2
20260505221936 78 318 9.0 13.0 0.00 0.00 0.00 63 982.3
20260505221437 78 313 9.0 13.0 0.00 0.00 0.00 62 982.0
20260505220931 79 288 7.0 13.0 0.00 0.00 0.00 64 981.9
20260505220439 79 338 8.0 16.0 0.00 0.00 0.00 63 981.9
20260505220057 81 288 9.0 16.0 0.00 0.00 0.00 60 981.9
20260505215955 80 311 9.0 16.0 0.00 0.00 0.00 62 981.7
20260505214933 82 290 9.0 14.0 0.00 0.00 0.00 61 981.6
20260505214433 83 298 9.0 14.0 0.00 0.00 0.00 59 981.8
20260505213930 82 306 9.0 14.0 0.00 0.00 0.00 60 981.8
20260505213559 82 263 9.0 14.0 0.00 0.00 0.00 55 981.8
20260505213458 81 258 9.0 14.0 0.00 0.00 0.00 60 981.7
20260505212943 81 299 9.0 14.0 0.00 0.00 0.00 57 981.7
20260505212046 83 289 11.0 17.0 0.00 0.00 0.00 56 981.8
20260505211947 82 245 10.0 17.0 0.00 0.00 0.00 57 981.8
20260505210925 83 304 10.0 17.0 0.00 0.00 0.00 56 981.9
20260505210419 84 288 10.0 17.0 0.00 0.00 0.00 54 981.7
20260505205922 84 302 10.0 16.0 0.00 0.00 0.00 53 981.8
20260505205418 84 281 10.0 16.0 0.00 0.00 0.00 49 981.8
20260505204925 84 287 10.0 16.0 0.00 0.00 0.00 52 981.8
20260505204418 83 265 9.0 15.0 0.00 0.00 0.00 48 981.9
20260505203919 84 269 9.0 17.0 0.00 0.00 0.00 48 982.0
20260505203415 84 283 9.0 17.0 0.00 0.00 0.00 45 982.0
20260505202923 83 277 10.0 18.0 0.00 0.00 0.00 47 982.1
20260505202414 83 279 12.0 18.0 0.00 0.00 0.00 43 982.2
20260505201920 85 281 11.0 17.0 0.00 0.00 0.00 46 982.1
20260505201413 85 293 12.0 19.0 0.00 0.00 0.00 43 981.8
20260505200920 85 265 11.0 19.0 0.00 0.00 0.00 49 982.0
20260505200414 87 269 9.0 16.0 0.00 0.00 0.00 53 982.1
20260505195915 86 234 8.0 14.0 0.00 0.00 0.00 50 982.0
20260505195543 86 234 10.0 15.0 0.00 0.00 0.00 50 982.1
20260505195434 86 250 9.0 15.0 0.00 0.00 0.00 51 982.1
20260505194413 86 251 9.0 15.0 0.00 0.00 0.00 51 982.0
20260505193919 85 244 9.0 15.0 0.00 0.00 0.00 51 981.8
20260505193410 86 233 10.0 16.0 0.00 0.00 0.00 53 982.0
20260505192914 85 239 11.0 16.0 0.00 0.00 0.00 52 982.0
20260505192408 86 238 10.0 18.0 0.00 0.00 0.00 55 982.1
20260505191906 87 215 11.0 20.0 0.00 0.00 0.00 56 982.0
20260505191406 86 219 12.0 20.0 0.00 0.00 0.00 58 981.9
20260505190909 85 232 13.0 21.0 0.00 0.00 0.00 56 981.9
20260505190407 85 232 13.0 21.0 0.00 0.00 0.00 57 982.0
20260505185921 85 244 11.0 18.0 0.00 0.00 0.00 56 981.8
20260505185401 85 272 11.0 18.0 0.00 0.00 0.00 57 981.8
20260505184906 85 238 11.0 18.0 0.00 0.00 0.00 55 981.8
20260505184400 86 220 10.0 15.0 0.00 0.00 0.00 53 981.7
20260505183905 85 227 10.0 14.0 0.00 0.00 0.00 55 981.7
20260505183359 86 213 11.0 17.0 0.00 0.00 0.00 51 981.8
20260505182900 85 232 11.0 17.0 0.00 0.00 0.00 55 982.0
20260505182358 85 240 9.0 17.0 0.00 0.00 0.00 55 981.9
20260505181900 85 247 9.0 14.0 0.00 0.00 0.00 62 982.0
20260505181355 84 211 10.0 17.0 0.00 0.00 0.00 60 981.9
20260505180857 83 227 9.0 17.0 0.00 0.00 0.00 60 981.9
20260505180645 83 201 10.0 16.0 0.00 0.00 0.00 63 982.0
20260505180422 83 214 9.0 16.0 0.00 0.00 0.00 63 981.9
20260505175347 83 214 10.0 17.0 0.00 0.00 0.00 62 981.9
20260505175036 83 217 12.0 17.0 0.00 0.00 0.00 63 982.0
20260505174910 83 209 12.0 17.0 0.00 0.00 0.00 65 982.1
20260505174014 82 207 9.0 18.0 0.00 0.00 0.00 67 982.0
20260505173906 83 210 10.0 18.0 0.00 0.00 0.00 65 982.0
20260505172847 81 206 8.0 16.0 0.00 0.00 0.00 69 981.9
20260505172351 82 202 8.0 17.0 0.00 0.00 0.00 68 981.9
20260505171850 81 182 8.0 17.0 0.00 0.00 0.00 67 981.8
20260505171347 80 195 7.0 16.0 0.00 0.00 0.00 69 981.8
20260505170848 81 179 7.0 16.0 0.00 0.00 0.00 69 981.8
20260505170345 80 211 8.0 13.0 0.00 0.00 0.00 72 981.8
20260505165846 79 163 8.0 16.0 0.00 0.00 0.00 71 981.8
20260505165346 78 164 8.0 16.0 0.00 0.00 0.00 72 981.8
20260505164852 78 198 8.0 14.0 0.00 0.00 0.00 73 981.8
20260505164346 77 148 7.0 14.0 0.00 0.00 0.00 73 981.7
20260505163849 77 190 7.0 16.0 0.00 0.00 0.00 73 981.7
20260505163345 77 202 8.0 16.0 0.00 0.00 0.00 73 981.6
20260505162847 77 177 8.0 15.0 0.00 0.00 0.00 73 981.7
20260505162341 77 205 9.0 15.0 0.00 0.00 0.00 72 981.6
20260505162058 76 160 9.0 16.0 0.00 0.00 0.00 73 981.6
20260505161915 76 179 9.0 16.0 0.00 0.00 0.00 73 981.6
20260505160846 76 202 8.0 14.0 0.00 0.00 0.00 73 981.7
20260505160351 76 215 9.0 15.0 0.00 0.00 0.00 73 981.6
20260505152347 76 190 11.0 21.0 0.00 0.00 0.00 73 981.2
20260505151834 76 213 11.0 21.0 0.00 0.00 0.00 73 981.2
20260505151342 76 192 11.0 19.0 0.00 0.00 0.00 74 981.0
20260505150840 75 209 10.0 19.0 0.00 0.00 0.00 74 981.1
20260505150343 75 207 9.0 16.0 0.00 0.00 0.00 76 981.2
20260505140331 72 197 9.0 17.0 0.00 0.00 0.00 80 980.8
20260505124841 70 178 8.0 17.0 0.00 0.00 0.00 84 980.7
20260505124313 70 214 8.0 16.0 0.00 0.00 0.00 84 980.7
20260505123818 70 162 8.0 15.0 0.00 0.00 0.00 84 980.6
20260505123320 69 196 9.0 20.0 0.00 0.00 0.00 85 980.5
20260505122812 69 212 10.0 20.0 0.00 0.00 0.00 85 980.4
20260505122450 69 205 10.0 20.0 0.00 0.00 0.00 85 979.9
20260505122433 69 181 9.0 20.0 0.00 0.00 0.00 85 979.8
20260505122337 69 167 10.0 19.0 0.00 0.00 0.00 85 980.3
20260505120807 69 192 9.0 18.0 0.00 0.00 0.00 85 979.9
20260505120306 69 190 9.0 18.0 0.00 0.00 0.00 85 979.9
20260505115803 69 224 9.0 18.0 0.00 0.00 0.00 86 979.9
20260505115306 69 203 10.0 18.0 0.00 0.00 0.00 86 980.1
20260505114806 69 197 9.0 18.0 0.00 0.00 0.00 86 979.9
20260505114310 69 184 10.0 19.0 0.00 0.00 0.00 86 979.9
20260505113807 69 170 9.0 19.0 0.00 0.00 0.00 86 979.9
20260505113312 69 190 7.0 15.0 0.00 0.00 0.00 86 979.8
20260505112806 69 205 8.0 13.0 0.00 0.00 0.00 86 979.9
20260505112308 69 198 8.0 15.0 0.00 0.00 0.00 86 979.8
20260505111804 69 176 9.0 15.0 0.00 0.00 0.00 86 979.9
20260505111305 69 175 8.0 16.0 0.00 0.00 0.00 86 979.9
20260505110801 69 221 8.0 16.0 0.00 0.00 0.00 86 980.1
20260505110259 69 184 8.0 17.0 0.00 0.00 0.00 85 979.9
20260505101756 69 182 9.0 20.0 0.00 0.00 0.00 83 979.9
20260505101251 70 171 9.0 20.0 0.00 0.00 0.00 83 980.1
20260505100747 70 201 9.0 17.0 0.00 0.00 0.00 83 980.1
20260505100249 70 176 9.0 17.0 0.00 0.00 0.00 82 980.1
20260505095829 70 173 10.0 17.0 0.00 0.00 0.00 82 980.2
20260505095247 70 188 10.0 19.0 0.00 0.00 0.00 82 980.2
20260505094848 71 167 10.0 19.0 0.00 0.00 0.00 81 980.2
20260505094243 71 171 10.0 19.0 0.00 0.00 0.00 81 980.2
20260505093804 71 173 9.0 19.0 0.00 0.00 0.00 81 979.8
20260505093243 71 198 9.0 19.0 0.00 0.00 0.00 80 979.9
20260505092745 71 196 9.0 19.0 0.00 0.00 0.00 80 979.9
20260505092242 71 202 9.0 19.0 0.00 0.00 0.00 80 979.9
20260505091743 71 134 10.0 21.0 0.00 0.00 0.00 80 979.9
20260505091241 71 180 10.0 21.0 0.00 0.00 0.00 79 980.1
20260505090742 71 188 10.0 17.0 0.00 0.00 0.00 79 980.3
20260505090239 71 188 11.0 22.0 0.00 0.00 0.00 79 980.3
20260505085739 71 202 10.0 22.0 0.00 0.00 0.00 78 980.4
20260505085237 71 192 9.0 18.0 0.00 0.00 0.00 78 980.4
20260505084815 71 173 10.0 20.0 0.00 0.00 0.00 77 980.2
20260505084450 72 196 11.0 19.0 0.00 0.00 0.00 77 980.3
20260505084444 72 194 10.0 22.0 0.00 0.00 0.00 76 980.3
20260505084421 72 180 9.0 22.0 0.00 0.00 0.00 76 980.3
20260505084311 72 194 11.0 20.0 0.00 0.00 0.00 77 980.3
20260505082231 72 190 9.0 19.0 0.00 0.00 0.00 76 980.3
20260505081729 72 194 10.0 20.0 0.00 0.00 0.00 75 980.4
20260505081319 72 122 8.0 16.0 0.00 0.00 0.00 75 980.3
20260505081243 72 178 9.0 20.0 0.00 0.00 0.00 75 980.4
20260505080227 72 193 8.0 16.0 0.00 0.00 0.00 75 980.3
20260505075726 72 171 8.0 16.0 0.00 0.00 0.00 74 980.4
20260505075419 72 180 7.0 16.0 0.00 0.00 0.00 74 980.6
20260505075410 73 178 7.0 17.0 0.00 0.00 0.00 74 980.7
20260505075259 72 171 7.0 14.0 0.00 0.00 0.00 74 980.4
20260505073726 73 194 7.0 17.0 0.00 0.00 0.00 73 980.8
20260505073230 73 161 7.0 14.0 0.00 0.00 0.00 73 980.9
20260505072837 73 161 7.0 15.0 0.00 0.00 0.00 72 981.1
20260505072732 73 155 7.0 14.0 0.00 0.00 0.00 73 981.0
20260505071824 73 203 8.0 18.0 0.00 0.00 0.00 72 981.4
20260505071729 73 161 8.0 18.0 0.00 0.00 0.00 72 981.4
20260505070719 73 199 7.0 19.0 0.00 0.00 0.00 72 981.3
20260505070214 74 194 8.0 19.0 0.00 0.00 0.00 71 981.3
20260505065713 74 200 8.0 17.0 0.00 0.00 0.00 71 981.4
20260505065213 74 173 7.0 17.0 0.00 0.00 0.00 71 981.4
20260505064713 74 184 8.0 17.0 0.00 0.00 0.00 71 981.5
20260505064219 74 146 10.0 17.0 0.00 0.00 0.00 70 981.4
20260505064206 74 186 9.0 17.0 0.00 0.00 0.00 70 981.5
20260505063149 74 126 8.0 16.0 0.00 0.00 0.00 71 981.7
20260505062647 74 173 8.0 19.0 0.00 0.00 0.00 70 981.5
20260505062231 74 186 8.0 22.0 0.00 0.00 0.00 70 981.8
20260505062152 74 143 7.0 22.0 0.00 0.00 0.00 70 981.7
20260505061149 74 200 8.0 15.0 0.00 0.00 0.00 70 981.9
20260505061134 74 153 7.0 14.0 0.00 0.00 0.00 70 981.9
20260505060148 74 200 6.0 13.0 0.00 0.00 0.00 71 982.1